{"data":{"norad_id":66043,"intl_designator":"2025-233L","name":"QIANFAN-101","alt_names":[],"object_type":"PAYLOAD","status":"ACTIVE","operator":null,"country":"PRC","launch_date":"2025-10-17","launch_site_code":"TAISC","launch_vehicle":null,"mission":null,"orbit_class":"UNKNOWN","rcs_meters":null,"size_class":null,"mass_kg":null,"dimensions":null,"purposes":[],"wikipedia_slug":null,"has_3d_model":false,"image_url":null,"decayed_at":null,"tle_current":{"epoch":"2026-09-20T09:22:21.488736Z","epoch_age_seconds":149885,"freshness":"FRESH","line1":"1 66043U 25233L   26263.39052649  .00000262  00000+0  10183-3 0  9996","line2":"2 66043  89.0061  29.6452 0015006 183.5182 176.5909 14.26861767 48202","mean_motion":14.26861767,"eccentricity":0.0015006,"inclination_deg":89.0061,"raan_deg":29.6452,"arg_perigee_deg":183.5182,"mean_anomaly_deg":176.5909,"bstar":0.00010183,"rev_number":4820,"period_min":100.92077826345,"perigee_km":791.46501811412,"apogee_km":813.01476524142,"semimajor_km":7180.3768916778,"source":"CELESTRAK","updated_at":"2026-09-21T09:00:15.734199Z"}}}